Yuma MCAS, AZ

5:05 PM MST on May 25, 2017 (GMT -0700)
Yuma Marine Corps Air Station

Weather History for KNYL - November, 2011

Change the Weather History Date:

Thursday, November 17, 2011

  Actual Average Record
Temperature  
Mean Temperature 68 °F 65 °F  
Max Temperature 79 °F 77 °F 88 °F (1949)
Min Temperature 56 °F 53 °F 30 °F (1958)
Degree Days  
Heating Degree Days 0 2  
Month to date heating degree days 34 17  
Since 1 July heating degree days 34 19  
Cooling Degree Days 3 2  
Month to date cooling degree days 19 73  
Year to date cooling degree days 4683 4635  
Growing Degree Days 18 (Base 50)    
Moisture  
Dew Point 44 °F    
Average Humidity 45    
Maximum Humidity 67    
Minimum Humidity 23    
Precipitation  
Precipitation 0.00 in 0.01 in 0.23 in (1982)
Month to date precipitation 0.42 0.10  
Year to date precipitation 1.84 2.93  
Sea Level Pressure  
Sea Level Pressure 30.00 in    
Wind  
Wind Speed 2 mph (North)    
Max Wind Speed 8 mph    
Max Gust Speed 12 mph    
Visibility 10 miles    
Events      
T = Trace of Precipitation, MM = Missing Value Source: NWS Daily Summary

Daily Weather History Graph

Daily Weather History Graph

Search for Another Location

Airport or City:

Trip Planner

Search our weather history database for the weather conditions in past years. The results will help you decide how hot, cold, wet, or windy it might be!

Date:

Astronomy

Nov. 17, 2011 Rise Set
Actual Time 7:10 AM MST 5:36 PM MST
Civil Twilight 6:43 AM MST 6:02 PM MST
Nautical Twilight 6:13 AM MST 6:32 PM MST
Astronomical Twilight 5:44 AM MST 7:01 PM MST
Moon 11:54 PM MST (11/17) 12:26 PM MST (11/17)
Length of Visible Light 11h 18m
Length of Day
10h 26m
Waning Gibbous, 59% of the Moon is Illuminated
Nov 17
Waning Gibbous
Nov 18
Last Quarter
Nov 24
New
Dec 2
First Quarter
Dec 10
Full

Hourly Weather History & Observations

Time (MST) Temp. Dew Point Humidity Pressure Visibility Wind Dir Wind Speed Gust Speed Precip Events Conditions
12:55 AM 62.1 °F 48.9 °F 62% 30.09 in 10.0 mi Calm Calm - N/A   Clear
1:55 AM 59.0 °F 48.9 °F 69% 30.09 in 10.0 mi Calm Calm - N/A   Clear
2:55 AM 59.0 °F 48.0 °F 67% 30.08 in 10.0 mi North 5.8 mph - N/A   Clear
3:55 AM 59.0 °F 46.9 °F 64% 30.08 in 10.0 mi North 4.6 mph - N/A   Clear
4:55 AM 57.9 °F 46.9 °F 67% 30.07 in 10.0 mi Calm Calm - N/A   Clear
5:55 AM 57.9 °F 45.0 °F 62% 30.07 in 10.0 mi North 4.6 mph - N/A   Clear
6:55 AM 57.0 °F 44.1 °F 62% 30.07 in 10.0 mi Calm Calm - N/A   Clear
7:55 AM 57.9 °F 45.0 °F 62% 30.08 in 10.0 mi Calm Calm - N/A   Clear
8:55 AM 63.0 °F 45.0 °F 52% 30.09 in 10.0 mi NNE 3.5 mph - N/A   Clear
9:55 AM 66.9 °F 39.9 °F 37% 30.08 in 10.0 mi North 6.9 mph - N/A   Clear
10:55 AM 71.1 °F 41.0 °F 34% 30.07 in 10.0 mi NE 4.6 mph - N/A   Partly Cloudy
11:55 AM 73.0 °F 41.0 °F 31% 30.04 in 10.0 mi Variable 3.5 mph - N/A   Clear
12:55 PM 75.9 °F 39.9 °F 27% 30.00 in 10.0 mi Calm Calm - N/A   Scattered Clouds
1:55 PM 77.0 °F 39.0 °F 25% 29.97 in 10.0 mi West 3.5 mph - N/A   Partly Cloudy
2:55 PM 78.1 °F 39.0 °F 25% 29.94 in 10.0 mi Variable 3.5 mph - N/A   Partly Cloudy
3:55 PM 79.0 °F 39.0 °F 24% 29.92 in 10.0 mi Calm Calm - N/A   Partly Cloudy
4:55 PM 78.1 °F 37.9 °F 24% 29.91 in 10.0 mi Calm Calm - N/A   Clear
5:55 PM 73.9 °F 41.0 °F 30% 29.91 in 10.0 mi Calm Calm - N/A   Clear
6:55 PM 71.1 °F 43.0 °F 36% 29.91 in 10.0 mi Calm Calm - N/A   Clear
7:55 PM 66.0 °F 48.9 °F 54% 29.91 in 10.0 mi Calm Calm - N/A   Clear
8:55 PM 64.0 °F 46.0 °F 52% 29.91 in 10.0 mi Calm Calm - N/A   Clear
9:55 PM 62.1 °F 48.9 °F 62% 29.91 in 10.0 mi Calm Calm - N/A   Clear
10:55 PM 60.1 °F 48.0 °F 64% 29.91 in 10.0 mi Calm Calm - N/A   Clear
11:55 PM 59.0 °F 46.9 °F 64% 29.90 in 10.0 mi Calm Calm - N/A   Clear